Weather reports worldwide

Advertisment
Aguilas, Spain (8432): temperature & dewpoint: 19.09.2020 03:00:00 - 25.09.2020 03:00:00 (CEST)Aguilas, Spain (8432): wind speed & gusts: 19.09.2020 03:00:00 - 25.09.2020 03:00:00 (CEST)Aguilas, Spain (8432): wind direction: 19.09.2020 03:00:00 - 25.09.2020 03:00:00 (CEST)Aguilas, Spain (8432): reduced air pressure: 19.09.2020 03:00:00 - 25.09.2020 03:00:00 (CEST)Aguilas, Spain (8432): visibility: 19.09.2020 03:00:00 - 25.09.2020 03:00:00 (CEST)Aguilas, Spain (8432): sunshine duration: 19.09.2020 03:00:00 - 25.09.2020 03:00:00 (CEST)Aguilas, Spain (8432): precipitation: 19.09.2020 03:00:00 - 25.09.2020 03:00:00 (CEST)
Date & Time tt [°C] td [°C] ff [km/h] ff [kn] fx [km/h] fx [kn] dd ppp [hPa] vv [km] sd [min] rr [mm]
25.09.2020 03:00:00 - - - - - - - - - - -
25.09.2020 02:00:00 28,9 9,6 27 14 52 28 WNW 1014,5 20 0 -
25.09.2020 01:00:00 28,9 9,6 19 10 43 23 WNW 1015,2 20 0 0,0
25.09.2020 00:00:00 28,8 9,6 13 7 38 21 W 1015,7 20 0 0,0
24.09.2020 23:00:00 - - - - - - - - - - -
24.09.2020 22:00:00 - - - - - - - - - - -
24.09.2020 21:00:00 - - - - - - - - - - -
24.09.2020 20:00:00 30,2 7,4 19 11 40 22 WNW 1013,5 15 7 -
24.09.2020 19:00:00 - - - - - - - - - - -
24.09.2020 18:00:00 27,8 17,4 3 1 18 10 S 1012,8 20 54 0,0
24.09.2020 17:00:00 28,5 14,3 9 5 18 10 SSW 1013,3 20 60 0,0
24.09.2020 16:00:00 - - - - - - - - - - -
24.09.2020 15:00:00 28,3 17,8 8 4 22 12 SSW 1014,3 20 60 0,0
24.09.2020 14:00:00 27,9 18,3 11 6 23 12 SSW 1015,6 20 60 -
24.09.2020 13:00:00 29,9 15,6 11 6 19 11 SSW 1015,1 20 60 0,0
24.09.2020 12:00:00 29,9 11,9 4 2 11 6 SW 1015,6 15 33 0,0
24.09.2020 11:00:00 26,9 15,0 3 1 13 7 S 1015,8 20 27 0,0
24.09.2020 10:00:00 25,1 17,1 6 4 14 8 SSW 1015,3 20 10 0,0
24.09.2020 09:00:00 23,4 12,1 3 2 5 3 W 1014,8 20 0 0,0
24.09.2020 08:00:00 23,1 11,2 1 1 9 5 NNW 1014,2 20 0 -
24.09.2020 07:00:00 22,8 11,2 4 2 11 6 E 1014,0 20 0 0,0
24.09.2020 06:00:00 - - - - - - - - - - -
24.09.2020 05:00:00 23,7 11,1 4 2 9 5 NW 1014,0 20 0 0,0
24.09.2020 04:00:00 - - - - - - - - - - -
24.09.2020 03:00:00 25,5 11,2 2 1 14 8 ESE 1013,9 20 0 0,0
24.09.2020 02:00:00 25,9 10,9 5 3 15 8 NW 1014,1 20 0 -
24.09.2020 01:00:00 24,4 12,0 8 5 12 6 WNW 1013,6 20 0 0,0
24.09.2020 00:00:00 - - - - - - - - - - -
23.09.2020 23:00:00 - - - - - - - - - - -
23.09.2020 22:00:00 - - - - - - - - - - -
23.09.2020 21:00:00 25,0 16,1 4 2 9 5 N 1011,9 20 0 0,0
23.09.2020 20:00:00 26,2 16,1 5 3 9 5 SSE 1011,4 20 30 -
23.09.2020 19:00:00 26,8 15,8 4 2 19 10 SSW 1011,1 20 60 0,0
23.09.2020 18:00:00 28,1 14,7 6 3 20 11 SSW 1011,1 20 60 0,0
23.09.2020 17:00:00 27,4 16,6 5 3 20 11 SSE 1011,3 20 60 0,0
23.09.2020 16:00:00 28,0 16,6 6 4 22 12 SSW 1012,0 20 60 0,0
23.09.2020 15:00:00 28,1 17,0 9 5 18 10 S 1012,6 20 59 0,0
23.09.2020 14:00:00 27,9 14,1 9 5 16 8 S 1013,1 20 41 -
23.09.2020 13:00:00 25,3 14,7 3 2 9 5 S 1013,7 20 2 0,0
23.09.2020 12:00:00 24,5 18,5 4 2 24 13 WSW 1014,4 18 0 0,0
23.09.2020 11:00:00 23,7 16,5 5 3 9 5 E 1013,3 17 0 0,0
23.09.2020 10:00:00 - - - - - - - - - - -
23.09.2020 09:00:00 20,8 14,4 3 2 6 4 NNE 1013,7 19 0 0,0
23.09.2020 08:00:00 20,3 14,9 4 2 8 5 NE 1013,4 17 0 -
23.09.2020 07:00:00 20,5 15,3 1 1 9 5 ENE 1013,1 18 0 0,0
23.09.2020 06:00:00 20,9 15,3 2 1 9 5 E 1013,2 17 0 0,0
23.09.2020 05:00:00 - - - - - - - - - - -
23.09.2020 04:00:00 21,0 15,5 3 1 9 5 N 1013,5 20 0 0,0
23.09.2020 03:00:00 - - - - - - - - - - -
23.09.2020 02:00:00 22,2 16,5 2 1 7 4 W 1013,8 19 0 -
23.09.2020 01:00:00 - - - - - - - - - - -
23.09.2020 00:00:00 22,6 16,6 3 2 9 5 NNE 1014,0 19 0 0,0
22.09.2020 23:00:00 22,7 16,7 4 2 9 5 ENE 1014,0 17 0 0,0
22.09.2020 22:00:00 22,9 16,9 3 2 8 4 E 1013,8 18 0 0,0
22.09.2020 21:00:00 23,1 16,9 5 3 9 5 E 1013,2 18 0 0,0
22.09.2020 20:00:00 23,9 16,9 4 2 11 6 SSE 1013,0 15 13 -
22.09.2020 19:00:00 - - - - - - - - - - -
22.09.2020 18:00:00 25,5 16,6 8 4 16 9 SSW 1013,3 20 59 0,0
22.09.2020 17:00:00 - - - - - - - - - - -
22.09.2020 16:00:00 27,2 16,8 7 4 19 11 SSW 1014,1 20 60 0,0
22.09.2020 15:00:00 27,0 14,7 13 7 22 12 SSW 1014,7 20 60 0,0
22.09.2020 14:00:00 27,4 17,9 9 5 22 12 S 1015,4 20 60 -
22.09.2020 13:00:00 27,1 17,0 9 5 18 10 SSE 1015,8 20 60 0,0
22.09.2020 12:00:00 26,8 18,4 9 5 16 9 S 1015,8 20 60 0,0
22.09.2020 11:00:00 26,3 16,8 6 4 12 6 SSE 1015,6 20 60 0,0
22.09.2020 10:00:00 - - - - - - - - - - -
22.09.2020 09:00:00 21,6 13,0 4 2 8 5 NNE 1015,3 19 27 0,0
22.09.2020 08:00:00 20,3 12,3 5 3 8 5 NE 1014,8 18 0 -
22.09.2020 07:00:00 19,4 11,9 3 2 5 3 ENE 1014,6 16 0 0,0
22.09.2020 06:00:00 20,6 12,0 3 2 11 6 NE 1014,6 20 0 0,0
22.09.2020 05:00:00 - - - - - - - - - - -
22.09.2020 04:00:00 - - - - - - - - - - -
22.09.2020 03:00:00 20,2 12,2 3 2 8 4 ENE 1015,4 20 0 0,0
22.09.2020 02:00:00 20,4 11,6 3 2 9 5 N 1015,7 20 0 -
22.09.2020 01:00:00 20,2 11,4 4 2 9 5 NW 1015,8 20 0 0,0
22.09.2020 00:00:00 20,9 13,1 4 2 9 5 NW 1016,0 20 0 0,0
21.09.2020 23:00:00 21,6 14,0 5 3 7 4 NNW 1016,1 20 0 0,0
21.09.2020 22:00:00 22,3 15,6 5 3 8 5 NNW 1016,3 20 0 0,0
21.09.2020 21:00:00 23,2 16,2 5 3 10 5 NW 1016,0 20 0 0,0
21.09.2020 20:00:00 24,1 16,4 3 2 10 6 WSW 1015,8 20 6 -
21.09.2020 19:00:00 25,1 16,8 5 3 13 7 SW 1015,4 20 22 0,0
21.09.2020 18:00:00 26,2 16,7 6 3 17 9 SSW 1015,4 20 38 0,0
21.09.2020 17:00:00 25,9 17,5 9 5 19 10 SSW 1015,5 20 5 0,0
21.09.2020 16:00:00 27,4 17,3 8 5 21 12 SSW 1016,0 20 44 0,0
21.09.2020 15:00:00 28,5 12,4 8 4 17 9 S 1016,2 20 46 0,0
21.09.2020 14:00:00 27,7 14,3 8 5 16 8 SSE 1016,7 20 42 -
21.09.2020 13:00:00 - - - - - - - - - - -
21.09.2020 12:00:00 27,0 13,0 6 4 13 7 S 1017,2 20 35 0,0
21.09.2020 11:00:00 - - - - - - - - - - -
21.09.2020 10:00:00 23,4 15,7 1 1 8 4 NNE 1016,8 20 5 0,0
21.09.2020 09:00:00 21,1 13,3 1 1 6 3 NNW 1016,8 19 0 0,0
21.09.2020 08:00:00 20,3 13,3 1 1 5 3 N 1016,4 20 0 -
21.09.2020 07:00:00 20,3 13,8 0 0 7 4 N 1016,0 20 0 0,0
21.09.2020 06:00:00 21,0 14,4 3 2 7 4 N 1016,0 20 0 0,0
21.09.2020 05:00:00 21,3 14,7 0 0 7 4 N 1016,3 20 0 0,0
21.09.2020 04:00:00 21,3 14,4 5 3 7 4 N 1016,5 20 0 0,0
21.09.2020 03:00:00 21,4 16,0 3 2 8 5 N 1016,9 20 0 0,0
21.09.2020 02:00:00 21,3 15,6 6 3 9 5 ENE 1016,9 20 0 -
21.09.2020 01:00:00 21,7 13,9 1 1 9 5 W 1016,9 20 0 0,0
21.09.2020 00:00:00 - - - - - - - - - - -
20.09.2020 23:00:00 - - - - - - - - - - -
20.09.2020 22:00:00 22,5 17,2 4 2 6 3 E 1017,1 20 0 0,0
20.09.2020 21:00:00 23,1 17,1 4 2 12 7 ENE 1016,6 20 0 0,0
20.09.2020 20:00:00 23,7 17,0 7 4 16 9 ESE 1016,4 20 9 -
20.09.2020 19:00:00 24,9 16,9 9 5 15 8 SE 1016,1 20 60 0,0
20.09.2020 18:00:00 25,8 17,5 7 4 16 9 SSE 1016,0 20 60 0,0
20.09.2020 17:00:00 - - - - - - - - - - -
20.09.2020 16:00:00 - - - - - - - - - - -
20.09.2020 15:00:00 27,3 16,9 13 7 23 13 S 1016,9 20 60 0,0
20.09.2020 14:00:00 28,5 13,9 13 7 22 12 SSW 1017,8 20 60 -
20.09.2020 13:00:00 28,4 12,7 12 7 23 12 S 1017,5 20 60 0,0
20.09.2020 12:00:00 - - - - - - - - - - -
20.09.2020 11:00:00 - - - - - - - - - - -
20.09.2020 10:00:00 - - - - - - - - - - -
20.09.2020 09:00:00 21,5 12,6 2 1 6 4 N 1017,7 20 28 0,0
20.09.2020 08:00:00 20,0 12,0 1 1 6 3 NE 1017,4 20 0 -
20.09.2020 07:00:00 20,8 11,7 4 2 8 4 NE 1017,1 20 0 0,0
20.09.2020 06:00:00 21,2 12,1 4 2 9 5 N 1016,9 20 0 0,0
20.09.2020 05:00:00 - - - - - - - - - - -
20.09.2020 04:00:00 - - - - - - - - - - -
20.09.2020 03:00:00 22,3 13,4 4 2 8 4 SW 1016,9 20 0 0,0
20.09.2020 02:00:00 22,4 12,6 4 2 10 5 NNE 1017,1 20 0 -
20.09.2020 01:00:00 21,9 13,0 3 1 6 4 N 1017,2 20 0 0,0
20.09.2020 00:00:00 - - - - - - - - - - -
19.09.2020 23:00:00 - - - - - - - - - - -
19.09.2020 22:00:00 24,1 15,9 5 3 10 5 ENE 1015,8 20 0 0,0
19.09.2020 21:00:00 25,0 15,9 3 2 10 5 NNE 1015,0 20 0 0,0
19.09.2020 20:00:00 25,9 15,9 4 2 14 8 SW 1014,6 20 29 -
19.09.2020 19:00:00 27,1 16,0 8 4 22 12 SSW 1014,5 20 60 0,0
19.09.2020 18:00:00 27,7 16,0 11 6 25 14 SSW 1015,3 20 60 0,0
19.09.2020 17:00:00 28,4 16,0 11 6 24 13 SSW 1013,7 20 60 0,0
19.09.2020 16:00:00 - - - - - - - - - - -
19.09.2020 15:00:00 28,1 16,0 14 8 26 14 SSW 1016,0 20 60 0,0
19.09.2020 14:00:00 28,0 13,6 13 7 24 13 S 1016,7 20 60 -
19.09.2020 13:00:00 - - - - - - - - - - -
19.09.2020 12:00:00 27,8 10,9 10 5 19 11 SSW 1016,8 20 60 0,0
19.09.2020 11:00:00 28,0 10,2 8 5 18 10 W 1017,4 20 60 0,0
19.09.2020 10:00:00 25,2 11,8 5 3 11 6 WSW 1017,0 20 60 0,0
19.09.2020 09:00:00 21,2 12,1 5 3 13 7 NW 1016,7 20 28 0,0
19.09.2020 08:00:00 18,2 12,2 2 1 11 6 SSE 1016,2 5 0 -
19.09.2020 07:00:00 18,9 13,3 6 3 14 8 NNW 1015,8 20 0 0,0
19.09.2020 06:00:00 19,8 15,9 4 2 8 4 NNE 1015,6 20 0 0,0
19.09.2020 05:00:00 - - - - - - - - - - -
19.09.2020 04:00:00 - - - - - - - - - - -
19.09.2020 03:00:00 20,5 16,1 1 1 7 4 S 1015,4 20 0 0,0

tt = temperature
td = dewpoint
ff = wind speed
fx = gusts
dd = wind direction
ppp = reduced air pressure
vv = visibility
sd = sunshine duration
rr = precipitation

Next stations